STARLINK-32036 (60141 NORAD) Tracking and Keplerian Element Data

This shows tracking and keplerian element data for the satellite.

Feedback or suggestion? Click here.




ElementValue
Catalog60141
NameSTARLINK-32036
Epoch Orbit592
Epoch Day286.33334491
Epoch Year2024
RAAN189.3105
Inclination53.1575
Eccentricity0.0001538
Argument of Perigee138.9394
Mean Anonmoly95.8432
Mean Motion15.39528795
Decay Rate0.00027284
L11 60141U 24120G 24286.33334491 .00027284 00000+0 69169-3 0 9999
L22 60141 53.1575 189.3105 0001538 138.9394 95.8432 15.39528795 5922



Live tracking and technical data element details for STARLINK-32036 (NORAD 60141). STARLINK-32036 can be tracked NOW for your location showing map with azimuth and elevation plus other details from your city location.







IsCatalogInMostPopularTable: catalog: 60141, numindb: 9
Update: records affected: 1



GetName: 60141 STARLINK-32036

Hit Count: updated at: Thu, 23 Jan 2025 13:56:57 GMT